www.pogodaiklimat.ru

Погода и климат >> Архив погоды >> Хорватия >> Dubrovnik-Cilipi


ПОГОДА в Dubrovnik-Cilipi

  • Прогноз погоды в Dubrovnik-Cilipi
  • Монитор погоды в Dubrovnik-Cilipi
  • Климат города

АРХИВ ПОГОДЫ в Dubrovnik-Cilipi

Время (UTC), дата Ветер
(напр.,м/с)
 
Видим.   Явления Облачность Т
(С)
Тd
(С)
f
(%)
Тe
(С)
Тes
(С)
Комфортность P
(гПа)
Po
(гПа)
Тmin
(С)
Tmax
(С)
R
(мм)
R24
(мм)
S
(см)
03 19.09 В 3 30 км ясно +17.0 +9.0 59 +17 +17 1012.1 993.6
06 19.09 В 5 30 км 5/4 700 м
[Cu med, cong Ac As]
+17.3 +11.5 69 +17 +17 1011.8 993.4 +15.2
09 19.09 ЮВ 7 25 км 9/4 1000 м
[Cu med, cong Cs]
+22.5 +13.8 58 +26 +27 жарко 1011.0 992.9
12 19.09 ЮВ 9 25 км гроза, ливневой дождь 9/6 600 м
[Cb cap Ac As Cs]
+21.5 +14.5 64 +24 +25 комфорт 1010.5 992.4
15 19.09 Ю 5 25 км {гроза, дождь} 6/4 360 м
[Cu med, cong Ac As]
+22.6 +16.7 69 +27 +28 душно 1010.1 992.1
18 19.09 СВ 3 30 км {гроза, дождь} 4/1 600 м
[Cu med, cong Ac trans Ci fib]
+19.7 +16.1 80 +22 +22 комфорт 1010.9 992.7 +23.3 0.0
21 19.09 В 4 30 км 8/1 600 м
[Cu med, cong Ac As]
+19.0 +14.8 77 +20 +20 1010.4 992.1
00 20.09 В 3 25 км в посл. час гроза {дождь} 9/5 1000 м
[Sc Ac As]
+19.0 +15.2 79 +20 +20 1008.8 990.6 0.0
03 20.09 В 2 25 км 10/5 600 м
[Cu Sc Ac As]
+18.1 +15.5 85 +19 +19 1007.9 989.6
06 20.09 Ю 4 30 км 9/6 900 м
[Cu Sc Ac As]
+19.0 +11.3 61 +20 +20 1008.6 990.3 +17.4 0.0
09 20.09 ЮЗ 4 20 км слабый дождь {гроза} 9/8 900 м
[Cu Sc Ac As]
+17.3 +10.6 65 +17 +18 1010.3 991.9
12 20.09 ЮЗ 5 35 км {дождь} 8/4 1050 м
[Cu med, cong Cs]
+19.8 +9.4 51 +21 +24 комфорт 1010.6 992.3 0.2
15 20.09 З 2 35 км 4/3 1110 м
[Cu med, cong Ci fib]
+17.5 +8.8 57 +18 +20 1011.7 993.2
18 20.09 СВ 1 25 км в посл. час дождь 6/3 1000 м
[Cu med, cong Ac As]
+15.7 +11.5 76 +16 +16 1012.2 993.6 +20.1 0.6
21 20.09 С 7 30 км 5/0
[Ac As]
+14.6 +8.8 68 +13 +13 1013.2 994.5
00 21.09 С 10 30 км ясно +14.0 +6.8 62 +11 +11 1013.8 995.1
03 21.09 С 11-18
{18}
30 км 3/0
[Ci fib]
+14.3 +4.8 53 +12 +12 1013.5 994.8
06 21.09 С 5-11
{20}
30 км 3/0
[Ac trans]
+14.8 +5.1 52 +13 +14 1015.0 996.3 +13.6
09 21.09 С 4 30 км 1/1 1500 м
[Cu hum]
+19.1 +5.9 42 +20 +25 1016.0 997.5
12 21.09 СЗ 9 30 км 1/1 1500 м
[Cu hum]
+20.6 +4.6 35 +21 +22 комфорт 1016.2 997.8
15 21.09 С 6 30 км 1/1 1500 м
[Cu hum]
+20.1 +4.4 36 +20 +21 1016.4 998.0
18 21.09 С 6 50 км ясно +17.5 +3.1 38 +17 +17 1017.9 999.3 +21.2
21 21.09 С 9 50 км ясно +16.1 +3.3 42 +14 +14 1018.6 999.9
00 22.09 СВ 8 50 км 3/0
[Ac trans]
+15.9 +2.4 40 +14 +14 1018.9 1000.2
03 22.09 С 7 50 км ясно +15.0 +2.5 43 +13 +13 1019.4 1000.6
06 22.09 С 4 30 км 3/0
[Ac trans]
+16.3 +3.4 42 +16 +16 1019.8 1001.1 +10.0
09 22.09 С 5 30 км ясно +19.8 +3.0 33 +20 +25 1020.4 1001.9
12 22.09 З 7 30 км 3/3 1000 м
[Cu med, cong]
+21.5 +5.1 34 +22 +24 комфорт 1020.1 1001.7
15 22.09 З 7 30 км 1/1 1000 м
[Cu med, cong]
+20.7 +8.8 46 +22 +22 комфорт 1019.9 1001.5
18 22.09 СЗ 4 40 км ясно +18.9 +7.2 47 +19 +19 1020.6 1002.1 +21.9
21 22.09 СЗ 3 30 км ясно +18.0 +6.2 46 +18 +18 1021.8 1003.2
00 23.09 С 5 30 км ясно +17.7 +5.3 44 +17 +17 1021.4 1002.8
03 23.09 В 2 30 км ясно +17.6 +4.4 42 +18 +18 1021.3 1002.6
06 23.09 СВ 3 30 км ясно +17.9 +4.7 42 +18 +19 1021.4 1002.8 +16.0
09 23.09 Ю 4 30 км ясно +21.3 +8.6 44 +22 +28 комфорт 1022.2 1003.8
12 23.09 ЮЗ 4 30 км ясно +21.7 +7.6 40 +23 +29 комфорт 1021.8 1003.4
15 23.09 ЮЗ 3 30 км ясно +20.8 +11.3 54 +23 +25 комфорт 1020.7 1002.3
18 23.09 СЗ 1 30 км ясно +16.4 +11.0 70 +17 +17 1021.3 1002.6 +22.3
21 23.09 В 3 30 км ясно +15.3 +9.8 70 +15 +15 1021.3 1002.5
00 24.09 В 2 30 км ясно +13.0 +9.9 81 +12 +12 1021.2 1002.3
03 24.09 СВ 3 30 км ясно +15.0 +7.8 62 +14 +14 1019.9 1001.1
06 24.09 СВ 4 30 км 6/0
[Ac trans Ci fib]
+16.5 +7.5 55 +16 +16 1019.3 1000.6 +12.7
09 24.09 Ю 3 30 км 4/0
[Ci fib]
+21.0 +10.8 52 +23 +30 комфорт 1019.3 1000.9
12 24.09 ЮЗ 2 30 км 6/1 600 м
[Cu med, cong Ci fib]
+21.2 +11.9 55 +23 +31 комфорт 1018.5 1000.2
15 24.09 ЮЗ 2 30 км 4/1 600 м
[Cu med, cong Ac trans Ci fib]
+21.5 +11.2 52 +23 +25 комфорт 1017.6 999.3
18 24.09 штиль 0 30 км 5/0
[Ac As]
+17.3 +12.4 73 +17 +17 1018.1 999.6 +22.5
21 24.09 В 3 30 км 5/0
[Ac As]
+16.0 +13.0 82 +16 +16 1018.7 1000.1
00 25.09 В 3 30 км 9/0
[Ac As]
+17.7 +11.8 68 +18 +18 1017.7 999.2
03 25.09 С 3 30 км 9/0
[Ac As]
+17.8 +9.3 57 +18 +18 1016.4 997.9
06 25.09 С 2 40 км {дождь} 9/1 2000 м
[Sc Ac As]
+16.9 +8.9 59 +17 +18 1016.5 997.9 +15.1 0.0
09 25.09 ЮВ 6 35 км зарница 9/8 700 м
[Cb cap Ac und]
+19.9 +13.0 64 +21 +22 комфорт 1016.8 998.4
12 25.09 СЗ 5 8000 м слабый дождь {гроза} 10/9 400 м
[Cu Sc Ac As]
+18.0 +11.4 65 +18 +18 1017.2 998.7 0.0
15 25.09 ЮЗ 1 25 км в посл. час дождь 10/8 1000 м
[Cu Sc Ac As]
+16.5 +14.6 89 +17 +17 1017.6 999.0
18 25.09 штиль 0 30 км {дождь} 9/8 2000 м
[Sc Ac As]
+15.1 +14.9 99 +15 +15 1017.7 999.1 +21.5 0.0
21 25.09 штиль 0 20 км 10/8 1500 м
[Cu Sc Ac As]
+15.4 +14.5 94 +15 +15 1018.2 999.6
00 26.09 С 2 20 км {дождь} 9/6 1500 м
[Sc Ac As]
+16.9 +10.6 66 +17 +17 1017.9 999.3 0.2

 

Местоположение метеостанции Dubrovnik-Cilipi (Хорватия): широта 42.57 долгота 18.27 высота над уровнем моря 165 м.

В архиве по умолчанию представлена погода в Dubrovnik-Cilipi за последнюю неделю. Архивные данные за месяц целиком и за предыдущие месяцы, начиная с января 2011 года, Вы можете получить, выбрав интересующий диапазон дат из раскрывающегося списка и нажав кнопку "Ввод!".

Внимание! Время в таблицах - всемирное. Для получения местного времени необходимо прибавить поправку, которая в Dubrovnik-Cilipi равна 1 ч.

Смотрите также архив погоды в соседних городах и на ближайших метеорологических станциях:

Погода в Dubrovnik-Gorica (Хорватия) (18 км)
Погода в Tivat (Черногория) (42 км)
Погода в Niksic (Черногория) (60 км)
Погода в Neum (Босния и Герцеговина) (67 км)
Погода в Podgorica (Черногория) (83 км)
Погода в Podgorica-Grad (Черногория) (84 км)
Погода в Ploce (Хорватия) (86 км)
Погода в Bar (Черногория) (86 км)
Погода в Mostar (Босния и Герцеговина) (95 км)
Погода в Lastovo (Хорватия) (114 км)

Пояснения к столбцам:

Ветер - указаны скорость ветра в м/с - средняя за 10 мин, порывы в срок и между сроками (в фигурных скобках) и направление, откуда дует ветер: С - северный, СВ - северо-восточный, В - восточный, ЮВ - юго-восточный, Ю - южный, ЮЗ - юго-западный, З - западный, СЗ - северо-западный.
Видимость - горизонтальная дальность видимости в метрах или километрах. При видимости от 1 до 10 км при отсутствии осадков обычно наблюдается дымка, при ухудшении видимости до 1 км и менее - туман. В сухую погоду видимость может ухудшаться дымом, пылью или мглою.
Явления - указаны атмосферные явления, наблюдавшиеся в срок или в последний час перед сроком; фигурными скобками обозначены явления, наблюдавшиеся между сроками (за 1-3 часа до срока); квадратными скобками обозначены град или гололедные отложения с указанием их диаметра в мм.
Облачность - указаны через наклонную черту общая и нижняя облачность в баллах и высота нижней границы облаков в метрах; квадратными скобками обозначены формы облаков: Ci - перистые, Cs - перисто-слоистые, Cc - перисто-кучевые, Ac - высококучевые, As - высокослоистые, Sc - слоисто-кучевые, Ns - слоисто-дождевые, Cu - кучевые, Cb - кучево-дождевые. Подробнее классификацию облаков см. в Атласе облаков (PDF).
T - Температура воздуха - температура, измеренная на высоте 2 м над землей.
Td - Температура точки росы - температура, при понижении до которой содержащийся в воздухе водяной пар достигнет насыщения.
f - Относительная влажность воздуха - влажноcть воздуха, измеренная на высоте 2 м над землей.
Te - Эффективная температура - температура, которую ощущает одетый по сезону человек в тени. Характеристика душности погоды. При расчете учитывается влияние влажности воздуха и скорости ветра на теплоощущения человека.
Tes - Эффективная температура на солнце - температура, которую ощущает человек, с поправкой на солнечный нагрев. Характеристика знойности погоды. Зависит от высоты солнца над горизонтом, облачности и скорости ветра. Ночью, в пасмурную погоду, а также при ветре 12 м/с и более поправка равна нулю.
P - Атмосферное давление - приведенное к уровню моря атмосферное давление.
Po - Атмосферное давление - измеренное на уровне метеостанции атмосферное давление.
Tmin - Минимальная температура - минимум температуры воздуха на высоте 2 м над землей.
Tmax - Максимальная температура - максимум температуры воздуха на высоте 2 м над землей.
R - Количество осадков - Количество выпавших осадков за период времени, мм. При наведении курсора мыши на число - период времени, за который выпало указанное количество осадков.
R24 - Количество осадков - Количество выпавших осадков за 24 часа, мм.
S - Снежный покров - Высота снежного покрова, см. При наведении курсора мыши на число - состояние снежного покрова и степень покрытия местности в баллах.